Regional Weather Roundup
Issued by NWS

Home | Current Version | Previous Version | Text Only | Print | Product List | Glossary On
Versions: 1 2 3 4 5 6 7 8 9 10 11 12 13 14 15 16 17 18 19 20 21 22 23 24 25 26 27 28 29 30 31 32 33 34 35 36 37 38 39 40 41 42 43 44 45 46 47 48 49 50
293
ASUS43 KMPX 080310
RWRMN
WEATHER ROUNDUP FOR MINNESOTA
NATIONAL WEATHER SERVICE TWIN CITIES/CHANHASSEN MN
900 PM CST SUN FEB 07 2016


NOTE: "FAIR" INDICATES FEW OR NO CLOUDS BELOW 12,000 FEET WITH NO
SIGNIFICANT WEATHER AND/OR OBSTRUCTIONS TO VISIBILITY. N/A MEANS
CURRENT SKY AND/OR WEATHER CONDITIONS ARE NOT AVAILABLE.

MNZ060>063-068>070-080400-
   Twin Cities Metro

CITY           SKY/WX    TMP DP  RH WIND       PRES   REMARKS
TWIN CITIES    LGT SNOW  20  12  71 NW28G36   29.75R WCI   2
ST PAUL        LGT SNOW  21  14  74 NW24G32   29.76R WCI   4
CRYSTAL        LGT SNOW  20  12  71 NW21G31   29.75R WCI   4
BLAINE         LGT SNOW  21  16  79 NW20G30   29.74R WCI   6
LAKEVILLE      LGT SNOW  19  18  93 NW23      29.74R WCI   2
EDEN PRAIRIE   LGT SNOW  21  14  74 NW23G32   29.75R WCI   5
SOUTH ST PAUL  CLOUDY    22  16  75 NW21      29.74R HAZE    WCI   7
LAKE ELMO      LGT SNOW  23  18  80 NW18G25   29.73R WCI   9
$$
MNZ001>005-007-008-013>017-022>024-027-028-080400-
   Northwest Minnesota

CITY           SKY/WX    TMP DP  RH WIND       PRES   REMARKS
BEMIDJI        LGT SNOW   8   3  82 NW17      29.82R WCI -11
HALLOCK        LGT SNOW  10   7  85 N24G32    30.00R WCI -10
ROSEAU         LGT SNOW   7   1  78 NW22      29.92R WCI -14
WARROAD        LGT SNOW   5   1  85 NW16G25   29.89R WCI -14
CROOKSTON      HVY SNOW  10   9  92 N37G45    29.99R VSB<1/4 WCI -14
FOSSTON        LGT SNOW   7   3  85 NW18      29.90R WCI -12
DETROIT LAKES  LGT SNOW  12   9  85 N26G38    29.89R WCI  -8
MOORHEAD       MIX PCPN  12  10  92 N32G39    29.99R VSB 1/2 WCI -10
PARK RAPIDS    LGT SNOW  10   3  73 NW23G33   29.80S WCI -10
MAHNOMEN       LGT SNOW   9   6  85 NW20      29.91R WCI -10
$$
MNZ006-009>011-018-025>026-080400-
   North Central Minnesota

CITY           SKY/WX    TMP DP  RH WIND       PRES   REMARKS
BAUDETTE       LGT SNOW   6   1  80 NW24      29.83R WCI -16
FLAG ISLAND    LGT SNOW   7   1  78 NW23      29.86R WCI -14
INTL FALLS     LGT SNOW  13   9  84 W13       29.74R FOG     WCI  -2
WASKISH        LGT SNOW   9   3  78 NW17G25   29.83R WCI -10
LONGVILLE      FLURRIES  10   7  85 NW9G20    29.77R WCI  -2
GRAND RAPIDS   CLOUDY    12   7  79 NW20G31   29.70R WCI  -6
CRANE LAKE     CLOUDY    18  16  93 N13G22    29.69R WCI   4
ORR            LGT SNOW  18  14  86 NW12G17   29.65R WCI   5
COOK           LGT SNOW  19  16  86 NW12G21   29.66R WCI   7
WALKER         LGT SNOW  10   5  82 NW13G22   29.80R WCI  -6
$$
MNZ012-019>021-037-080400-
   Northeast Minnesota

CITY           SKY/WX    TMP DP  RH WIND       PRES   REMARKS
DULUTH         LGT SNOW  22  17  81 NW18G26   29.59R BLWGSNOWWCI   7
ELY            LGT SNOW  27  27 100 N3        29.57R
HIBBING        LGT SNOW  16  12  84 NW24G33   29.65R FOG     WCI  -2
EVELETH        MIX PCPN  21  18  86 W8        29.63R WCI  12
DULUTH HARBOR  FLURRIES  27  21  80 W18G26    29.64R WCI  13
TWO HARBORS    CLOUDY    30  25  80 NW8G16    29.56R HAZE    WCI  23
SILVER BAY     LGT SNOW  30  27  86 CALM      29.56R
GRAND MARAIS     N/A     25  20  81 VRB7      29.58R WCI  17
G MARAIS ARPRT LGT SNOW  18  12  79 N14       29.53R WCI   4
$$
MNZ029>031-032-039>041-046>048-054>057-064-080400-
   West Central Minnesota

CITY           SKY/WX    TMP DP  RH WIND       PRES   REMARKS
FERGUS FALLS   LGT SNOW  14  10  85 N25G43    29.95R WCI  -5
WHEATON        LGT SNOW  19  18  93 NW26G36   29.97R WCI   1
MORRIS         LGT SNOW  18  12  79 N26G38    29.90R WCI  -1
ALEXANDRIA     LGT SNOW  13   7  77 N20G33    29.84R WCI  -5
ELBOW LAKE     CLOUDY    14   9  80 NW31G44   29.90S FOG     WCI  -8
WADENA         LGT SNOW   9   3  78 NW21G28   29.83R WCI -11
GLENWOOD       LGT SNOW  14  10  85 NW25G33   29.83F WCI  -5
APPLETON       LGT SNOW  19  16  86 N26G33    29.92S WCI   1
BENSON         LGT SNOW  18  12  79 N28G38    29.89S WCI  -1
ORTONVILLE     CLOUDY    19  12  73 N24G37    29.93S WCI   2
MADISON        CLOUDY    23  16  74 N28G40    29.93S WCI   6
WILLMAR        LGT SNOW  19  14  79 NW30G38   29.86R WCI   0
$$
MNZ033>034-036-042>043-049>051-058-059-080400-
   Central Minnesota

CITY           SKY/WX    TMP DP  RH WIND       PRES   REMARKS
ST CLOUD       FLURRIES  16   8  71 NW21G32   29.77S WCI  -1
SAUK CENTRE    LGT SNOW  13   8  81 NW28G41   29.82S VSB 1   WCI  -8
PAYNESVILLE    FLURRIES  16  10  79 NW22      29.82S WCI  -2
AITKIN         MIX PCPN  18   7  62 NW13G26   29.72R WCI   4
PINE RIVER     FLURRIES  12   7  79 NW15G23   29.80S WCI  -4
BRAINERD       LGT SNOW  13   7  77 NW16G28   29.76R WCI  -3
STAPLES        LGT SNOW  10   7  85 NW23G29   29.80S WCI -10
LONG PRAIRIE   LGT SNOW  12   9  85 W23G32    29.81S WCI  -7
LITTLE FALLS   FLURRIES  14   7  73 NW14G23   29.79S WCI  -1
LITCHFIELD     LGT SNOW  18  10  73 NW26G35   29.81S WCI  -1
BUFFALO        FLURRIES  18  11  73 W16G29    29.79R WCI   4
MAPLE LAKE     CLOUDY    18  12  77 NW16G31   29.79R WCI   3
$$
MNZ037-044-045-052-053-080400-
   East Central Minnesota

CITY           SKY/WX    TMP DP  RH WIND       PRES   REMARKS
PRINCETON      FLURRIES  18  12  79 W15G26    29.75R WCI   3
MORA           CLOUDY    18  10  73 NW17G28   29.74R WCI   2
CAMBRIDGE      FLURRIES  19  10  68 NW15G23   29.72R WCI   5
RUSH CITY      CLOUDY    20  13  72 NW15G30   29.71R WCI   7
MOOSE LAKE     FLURRIES  21  14  73 NW9G20    29.66R WCI  11
HINCKLEY       FLURRIES  21  14  73 NW14G20   29.69R WCI   8
CLOQUET        FLURRIES  21  16  79 W15G22    29.62R WCI   8
MCGREGOR       CLOUDY    18  12  79 NW20      29.70S WCI   1
$$
MNZ071>073-080-081-089-090-097-098-080400-
   Southwest Minnesota

CITY           SKY/WX    TMP DP  RH WIND       PRES   REMARKS
MONTEVIDEO     FLURRIES  19  16  86 N24G32    29.92R WCI   2
GRANITE FALLS  LGT SNOW  22  18  86 NW25G33   29.91S WCI   5
CANBY          CLOUDY    24  20  83 W23G32    29.94S WCI   9
MARSHALL       SNOW      19  18  93 N29G41    29.89R VSB 1/2 WCI   1
REDWOOD FALLS  LGT SNOW  21  16  81 N22G31    29.87R WCI   5
OLIVIA         LGT SNOW  21  14  73 NW26G43   29.85S WCI   4
PIPESTONE      LGT SNOW  23  12  63 N25G38    29.90S WCI   7
WINDOM         LGT SNOW  21  19  93 NW25      29.85R VSB 1   WCI   4
WORTHINGTON    CLOUDY   N/A N/A N/A NW28G33   29.88R
JACKSON          N/A     25  21  86 NW23G29   29.85R WCI  10
TRACY          SNOW      23  21  92 NW18G30   29.88S VSB 1/2 WCI   9
SLAYTON        LGT SNOW  20  19  95 NW30G39   29.87S VSB 3/4 WCI   2
$$
MNZ065>067-074>077-082>085-091>093-080400-
   South Central Minnesota

CITY           SKY/WX    TMP DP  RH WIND       PRES   REMARKS
MANKATO        CLOUDY   N/A N/A N/A NW29G37   29.79R
NEW ULM        LGT SNOW  21  18  86 NW26G38   29.82R WCI   4
ST JAMES       LGT SNOW  23  21  93 NW32G38   29.85R VSB 3/4 WCI   5
FAIRMONT       CLOUDY    27  16  63 NW22      29.81R WCI  12
GLENCOE        LGT SNOW  21  18  91 NW22G29   29.79S WCI   4
FARIBAULT      LGT SNOW  25  21  86 W16G28    29.75S WCI  12
OWATONNA       LGT SNOW  25  19  80 W24G33    29.74S WCI   9
WASECA         LGT SNOW  23  19  86 NW25G37   29.78S WCI   7
ALBERT LEA     CLOUDY    27  21  80 NW20G26   29.75R WCI  13
$$
MNZ078>079-086>088-094>096-080400-
   Southeast Minnesota

CITY           SKY/WX    TMP DP  RH WIND       PRES   REMARKS
ROCHESTER      CLOUDY    26  17  68 NW33G40   29.69R WCI   9
RED WING       LGT SNOW  25  21  86 NW16G26   29.71R WCI  12
STANTON        LGT SNOW  24  19  83 NW23G32   29.73S WCI   8
DODGE CENTER   CLOUDY    25  19  80 NW24G31   29.71R WCI   9
WINONA         CLOUDY    34  27  75 NW16G24   29.67S WCI  23
AUSTIN         CLOUDY    28  21  74 NW26G35   29.72S WCI  13
PRESTON        LGT SNOW  28  23  81 NW25      29.68R WCI  14
$$
ABBREVIATIONS USED IN REMARKS
   TC - TEMPERATURES IN CELSIUS
  WCI - WIND CHILL INDEX
   HX - HEAT INDEX
  VSB - VISIBILITY
$$




USA.gov is the U.S. government's official web portal to all federal, state and local government web resources and services.